Theta_e
299 296 299 300 300 302 306 306 306 306 306 306 306 306 307 308 308 308 309 310 308 309 310 311 313 315 317 325 326 331 330 328 323 322 319 316 314 313 311 310 309 306 307 310
294 295 295 295 298 298 299 300 303 306 307 307 307 306 307 307 307 308 309 310 311 309 310 311 312 314 315 319 323 328 329 328 324 321 319 316 314 313 312 311 310 307 306 309
292 293 294 294 293 294 296 299 300 303 304 306 307 308 307 305 306 308 310 310 311 311 311 311 310 313 314 318 322 320 326 327 323 321 321 318 315 314 312 311 310 309 305 308
292 294 293 292 293 293 293 296 300 302 304 307 306 310 308 306 306 306 308 308 309 310 311 311 310 310 314 316 319 319 321 326 324 321 321 319 317 315 313 312 311 310 306 307
292 292 293 293 293 294 294 295 297 299 303 305 306 310 309 307 308 308 308 308 309 309 310 311 311 310 312 314 316 320 318 323 327 321 320 321 319 316 314 313 311 310 307 306
292 293 293 294 295 295 295 296 298 299 303 306 305 308 308 308 308 308 308 309 310 310 309 311 311 311 310 312 314 319 320 321 325 325 320 321 320 318 315 313 312 311 309 306
292 293 292 294 295 295 295 296 298 301 305 304 304 307 308 306 306 307 307 308 310 311 312 310 310 310 310 310 314 319 320 322 324 325 321 319 321 319 317 314 313 312 310 306
290 291 293 294 293 293 294 295 297 303 301 302 304 307 307 307 308 308 308 308 308 311 312 312 312 310 310 310 311 315 318 321 324 325 324 318 321 321 319 316 313 312 311 308
290 291 292 292 293 294 296 299 298 301 300 302 305 306 306 306 306 306 307 308 307 308 312 311 311 311 310 310 309 310 315 320 322 323 324 320 318 321 320 317 314 313 312 310
287 292 293 293 295 295 296 297 302 302 302 303 307 308 307 306 306 306 306 306 307 309 311 312 311 312 311 310 310 309 310 314 319 322 322 320 318 320 320 319 316 314 312 310
292 292 292 294 294 295 295 299 301 303 304 303 303 307 305 306 306 305 305 306 306 309 310 311 313 313 312 311 310 309 310 314 320 323 323 320 318 319 320 320 317 314 313 311
293 293 294 292 293 295 296 300 300 302 302 304 305 305 306 306 305 305 305 306 307 306 306 311 313 314 312 311 310 310 310 316 318 321 321 321 319 318 319 320 318 315 314 311
291 293 291 290 293 297 295 297 298 301 300 302 305 303 304 306 306 305 305 307 307 307 306 308 310 311 312 311 310 310 311 315 317 320 321 321 319 317 318 320 320 316 314 311
292 290 292 291 293 294 294 295 295 297 300 299 304 305 304 305 306 305 305 306 308 307 306 307 306 307 309 310 310 311 313 316 317 320 321 320 319 317 316 319 320 317 314 311
290 289 290 291 292 292 293 293 294 295 297 299 304 306 305 305 306 306 307 307 308 308 307 308 309 307 306 307 310 312 315 317 318 320 320 319 318 316 317 319 320 317 314 312
287 289 290 291 292 291 292 293 296 300 303 304 304 304 304 306 305 304 305 307 308 308 306 308 311 313 311 309 308 314 318 319 319 320 320 319 318 316 317 318 319 317 314 312
290 286 286 287 289 290 294 297 300 299 301 302 304 305 305 307 304 302 302 302 302 306 308 308 308 311 313 314 315 316 318 318 319 319 319 317 317 316 316 318 318 317 315 312
289 289 290 288 284 287 294 295 299 300 300 297 297 301 307 302 299 299 301 301 301 302 306 308 308 307 308 310 311 313 314 315 315 315 315 315 315 315 316 317 318 317 315 312
291 286 286 286 283 292 293 297 298 300 300 296 296 297 304 304 302 297 298 299 300 301 306 309 308 307 306 307 308 309 310 311 312 312 313 312 313 313 315 317 317 317 315 312
291 291 288 278 290 286 293 294 295 297 299 295 295 295 299 301 299 298 297 295 297 300 302 307 307 307 305 306 307 308 309 309 310 311 311 311 311 313 315 316 317 317 315 313
280 276 287 286 285 288 293 294 296 296 295 294 295 294 296 297 297 297 298 297 293 294 297 302 305 306 306 306 307 306 307 309 309 309 310 310 311 312 314 316 317 317 315 313
284 281 280 277 282 288 293 293 293 295 295 294 294 295 295 295 296 295 296 295 295 294 293 295 300 303 306 306 306 307 307 308 308 309 309 309 310 311 314 315 316 316 315 313
288 287 285 288 289 292 292 291 293 293 293 292 292 293 293 294 295 295 295 296 293 292 293 293 294 298 301 306 306 306 307 308 308 309 309 309 309 311 313 315 316 316 315 313
287 289 290 287 291 290 291 293 293 292 292 292 292 291 292 292 292 292 294 296 295 296 292 292 293 294 296 299 302 306 307 307 308 309 310 310 311 312 313 314 315 316 315 313
290 289 288 289 290 291 291 291 292 292 291 291 290 290 292 292 293 293 293 293 294 295 296 292 292 293 294 295 298 301 305 307 308 309 310 310 311 312 313 313 315 316 317 317
291 290 288 290 291 291 291 292 292 292 291 291 290 290 291 292 292 292 292 293 293 293 296 296 293 292 293 294 295 296 300 302 307 309 309 310 310 311 311 313 313 313 314 315
Wind_Speed
9 5 3 11 11 17 17 20 25 20 18 21 21 18 16 22 25 20 25 28 33 43 42 38 39 36 34 30 38 39 40 36 33 34 32 29 28 24 21 17 15 14 14 12
6 5 12 19 15 17 15 17 19 18 12 13 21 24 22 16 15 25 29 34 30 26 37 40 45 43 40 38 40 42 43 39 40 38 34 31 27 24 20 19 18 17 16 15
5 13 14 17 20 18 17 17 18 19 19 22 21 27 18 12 13 22 32 36 39 36 36 33 37 51 47 45 44 44 45 43 42 41 38 33 28 26 27 25 22 20 18 17
4 9 17 19 22 16 24 12 19 19 13 12 11 14 18 11 17 18 29 32 35 40 41 41 39 47 56 50 44 42 46 46 43 43 43 40 38 37 34 27 24 22 20 19
5 16 19 20 22 16 27 20 21 21 20 15 17 13 23 13 24 30 20 31 38 41 47 48 46 40 53 52 49 46 45 47 47 45 44 43 41 36 30 28 27 24 23 21
8 20 8 14 16 18 17 19 23 23 14 14 27 16 15 19 32 13 19 28 37 40 47 51 49 47 48 52 52 51 50 48 49 48 46 46 44 39 34 33 32 29 26 24
14 4 18 12 18 11 13 15 8 6 11 20 15 14 25 8 11 21 20 26 39 47 47 48 54 50 53 55 56 54 53 52 50 51 48 45 46 42 36 34 35 33 31 29
7 20 11 11 13 16 23 11 7 10 10 20 12 14 20 15 22 41 38 38 32 36 44 46 49 55 54 56 60 57 55 54 53 52 50 44 47 45 40 36 34 33 31 28
5 16 28 23 22 14 3 7 14 13 23 14 7 15 25 24 27 21 24 34 32 32 23 38 47 53 56 54 60 60 57 56 55 53 51 46 47 47 45 40 35 34 31 28
6 16 17 21 21 12 16 11 5 6 8 11 8 15 10 11 24 23 28 21 33 40 40 28 39 48 52 55 53 60 59 58 56 53 52 48 46 47 46 40 37 35 32 31
8 4 24 7 4 19 13 9 6 8 7 6 13 9 6 15 4 5 4 10 9 14 22 29 27 36 48 52 53 58 58 58 57 55 54 48 46 46 45 42 39 36 33 33
3 5 9 24 29 20 15 7 9 5 8 6 7 20 3 7 6 6 5 9 13 13 11 20 26 27 38 48 50 54 56 57 56 55 54 50 45 46 46 44 41 37 36 34
5 2 11 24 8 6 12 13 14 10 9 13 10 13 29 8 1 10 7 13 12 13 12 9 22 27 32 41 48 51 54 55 54 54 53 51 47 46 47 46 43 38 37 35
11 4 7 13 20 20 19 24 21 14 8 15 13 18 25 20 13 8 13 14 12 10 9 6 15 25 29 34 41 45 48 50 51 52 53 51 49 47 47 46 44 40 39 37
2 11 11 16 21 24 23 24 26 19 18 10 16 14 22 11 7 4 10 11 10 11 7 7 8 14 22 29 34 38 43 46 48 50 50 50 47 47 46 47 44 41 40 37
4 7 18 22 17 16 20 26 18 16 12 10 16 19 3 5 11 16 20 16 12 9 6 8 7 12 19 24 29 34 38 42 45 47 48 46 47 48 46 46 45 43 40 38
8 3 4 8 12 18 8 11 15 16 13 16 14 13 5 3 13 12 18 20 20 16 8 6 10 10 16 21 27 31 35 38 41 43 44 46 47 47 46 46 45 44 42 39
8 6 4 6 7 3 4 17 12 12 13 23 23 23 4 15 23 22 26 21 18 17 14 6 3 9 13 16 21 25 29 33 36 38 41 44 45 46 46 46 47 46 43 41
12 4 3 1 3 11 15 2 8 12 11 21 23 26 9 12 12 23 31 22 18 18 16 11 7 3 11 14 17 23 29 31 33 36 39 40 44 46 45 47 48 46 44 41
5 7 3 3 6 6 6 17 25 9 2 19 20 24 21 16 8 6 25 30 30 24 19 13 9 8 4 8 13 19 26 27 31 33 34 37 41 43 44 46 49 47 43 40
2 3 6 8 6 8 7 11 15 5 6 14 13 22 25 11 10 14 21 27 31 32 32 21 12 11 7 4 7 15 22 25 26 29 30 34 38 40 42 45 47 45 43 39
7 4 4 1 1 7 3 7 7 4 6 8 7 10 15 24 27 26 23 27 28 33 34 33 27 19 10 7 6 10 16 21 22 25 26 30 34 37 40 44 45 44 41 39
5 8 5 8 6 7 25 20 16 9 8 7 9 11 10 9 11 24 26 23 26 30 31 31 30 27 21 12 7 6 11 15 19 21 20 25 29 32 36 41 43 42 40 39
6 7 7 1 18 17 24 18 18 23 2 2 7 9 11 13 13 16 17 20 20 24 30 29 28 29 27 23 14 7 7 11 15 18 19 21 26 29 32 36 39 40 39 38
10 8 9 10 19 24 24 30 31 25 8 5 5 7 9 12 15 15 16 14 17 18 21 25 25 25 25 23 22 16 8 6 12 16 18 20 22 26 29 31 36 37 36 36
19 18 7 11 27 13 14 12 12 12 8 4 4 5 6 12 14 16 15 13 13 14 9 16 21 21 22 21 20 19 15 8 5 12 17 18 20 21 23 26 29 30 31 32
Wind_Direction
334 56 354 351 335 306 283 274 275 283 285 300 290 285 263 240 249 259 262 256 248 240 236 229 221 225 224 212 210 211 214 215 211 207 206 205 206 204 202 196 193 187 185 181
14 302 344 324 332 324 303 299 298 300 309 266 280 272 273 245 229 224 242 255 253 241 233 231 219 219 221 215 210 211 216 215 212 211 210 211 207 206 207 201 196 192 188 184
327 282 325 341 323 322 307 294 299 289 312 301 290 281 265 266 247 233 237 245 250 247 242 230 222 216 219 216 209 213 216 215 209 209 209 209 206 204 203 201 200 194 191 188
332 333 319 297 287 302 292 298 304 298 297 277 352 284 255 242 247 245 239 239 242 244 241 238 231 220 216 217 215 216 216 216 212 211 207 208 207 205 209 204 199 196 195 191
284 309 312 300 283 279 275 287 281 274 270 285 268 272 265 226 246 241 241 238 239 236 238 234 230 221 218 217 215 215 217 217 217 214 210 208 210 213 212 201 201 198 197 194
291 311 292 307 314 284 275 287 279 267 264 248 249 227 258 229 236 257 243 240 243 242 234 234 233 224 218 216 215 213 214 216 217 220 215 209 212 211 207 203 201 199 198 196
322 311 309 282 325 338 331 322 283 243 216 240 236 228 240 262 255 239 244 240 237 240 239 229 229 224 218 214 212 211 214 214 216 219 220 212 213 214 212 207 203 199 198 197
338 322 333 303 294 288 287 255 265 280 243 259 238 236 244 233 247 263 263 264 268 244 233 232 229 224 220 217 211 210 213 214 213 218 222 217 214 213 213 211 208 205 204 199
326 313 301 291 296 282 269 244 232 250 264 277 274 253 256 256 264 269 268 261 254 252 234 233 226 223 220 218 212 210 212 215 215 216 220 218 214 212 212 209 209 207 204 199
276 303 298 300 313 278 202 262 291 219 278 257 270 261 252 230 232 238 248 252 246 258 255 238 228 222 221 219 217 212 214 214 216 215 218 218 215 212 212 208 207 205 202 197
291 244 299 323 310 292 309 285 262 285 242 253 260 265 221 240 297 351 303 337 322 285 250 233 228 224 221 216 214 209 209 211 212 210 216 216 214 212 211 208 207 205 201 198
269 274 295 302 296 277 268 298 287 272 310 270 243 255 280 30 62 50 359 341 327 318 296 231 217 220 214 211 209 207 205 207 212 211 214 215 212 210 208 206 206 205 201 199
302 342 324 320 332 352 325 310 300 280 284 274 246 258 260 254 347 21 348 341 334 322 306 261 209 202 200 204 205 204 204 206 210 210 212 212 210 210 207 205 204 202 200 198
324 234 258 278 285 293 297 298 295 286 279 284 254 258 283 274 305 347 345 337 325 323 304 276 206 198 196 200 202 204 203 205 208 209 211 210 209 210 206 204 202 201 199 197
216 274 280 271 278 287 283 294 300 296 272 255 284 221 257 311 316 315 356 337 314 316 292 260 218 194 194 196 198 203 205 205 207 207 208 210 208 209 206 202 200 198 198 197
226 273 308 293 291 290 298 298 292 281 301 247 271 242 214 175 41 13 30 357 350 335 301 264 214 196 194 196 198 200 201 203 204 205 207 207 206 207 205 201 199 196 195 195
278 226 341 273 299 312 296 351 315 334 311 339 336 256 179 342 64 33 23 20 14 18 339 287 234 193 188 189 192 195 196 197 200 204 205 206 206 205 202 200 197 195 194 194
246 256 250 270 342 316 251 319 279 314 7 354 345 342 307 97 65 31 45 22 22 25 22 345 313 205 202 195 194 199 199 203 204 205 205 203 202 203 200 197 196 195 195 195
210 166 269 244 218 285 298 308 328 332 347 357 347 353 18 97 66 1 39 31 27 36 44 43 30 47 199 193 194 197 199 203 202 201 203 203 201 200 198 196 195 195 194 194
216 211 161 341 280 255 277 335 322 302 207 351 1 357 6 71 73 10 22 37 43 41 43 51 67 74 129 178 186 193 195 196 199 200 200 201 201 200 199 196 195 195 196 195
294 313 215 249 261 277 276 320 343 35 326 320 358 10 11 19 32 360 27 30 41 44 46 48 61 70 78 98 167 189 195 196 196 199 199 201 200 200 200 197 196 194 195 195
206 173 228 32 207 282 346 333 12 273 288 303 16 13 23 17 21 16 28 32 27 31 38 44 47 52 57 80 114 170 190 193 193 196 198 201 199 198 199 197 196 196 196 196
244 193 212 196 223 282 297 305 299 321 301 335 16 18 3 358 8 18 18 13 11 26 33 36 42 50 53 68 97 142 171 185 193 194 194 195 196 199 200 198 197 196 197 198
251 184 218 74 259 264 272 280 283 310 276 342 341 354 353 359 4 9 16 357 8 4 23 28 31 40 45 45 56 94 150 169 184 187 189 187 192 194 199 201 200 198 198 199
245 168 219 250 266 275 272 272 280 277 236 321 329 340 337 347 355 355 346 356 1 7 360 12 26 29 36 39 44 54 77 137 172 178 180 184 188 192 194 200 202 203 204 207
236 236 208 242 249 221 250 280 270 217 263 285 316 338 343 334 338 341 344 346 343 349 359 348 356 19 25 28 36 42 51 75 144 174 176 181 184 189 193 195 198 204 208 208